Dewpoint
52 52 52 51 51 51 51 50 49 49 49 49 49 49 50 50 50 38 30 39 42 48 45 29 26 28 28 29 30 30 31 31 28 25 26 28 32 37 38 42 41 42 42 45 48
52 52 51 51 51 50 50 50 50 49 48 47 48 49 49 49 36 24 40 45 46 46 31 25 25 26 25 25 30 31 27 25 25 26 26 30 37 38 37 39 40 43 42 46 49
51 51 51 50 50 50 50 49 49 48 47 48 49 48 48 45 30 20 43 44 43 39 27 25 25 25 25 25 26 27 25 24 24 28 33 36 35 36 35 35 41 43 45 46 50
51 51 50 50 50 49 49 49 49 47 47 48 48 48 49 37 17 21 40 41 41 29 24 25 25 26 25 24 24 26 24 22 25 25 26 34 36 32 34 34 41 43 45 51 52
51 50 50 50 49 49 48 49 48 46 49 48 48 48 41 26 17 19 39 33 21 27 26 25 26 26 25 26 26 26 24 25 25 28 29 30 30 34 35 35 34 36 48 50 51
50 50 50 49 49 48 47 48 47 46 45 48 47 48 30 11 13 16 20 19 19 26 27 28 28 30 28 28 28 26 26 27 29 30 31 29 27 27 28 34 33 33 44 49 52
50 49 49 49 48 47 47 48 46 48 44 45 46 35 28 12 14 19 21 15 18 25 26 30 33 32 30 29 27 26 26 31 31 31 31 32 27 27 29 32 32 33 42 47 51
49 49 49 49 48 46 47 47 45 46 45 46 45 33 22 12 15 18 16 12 15 27 29 33 35 34 33 31 27 25 33 32 36 30 30 28 27 27 29 30 32 41 45 47 48
49 49 49 48 47 45 46 46 43 41 45 45 29 22 11 20 10 17 12 12 13 27 29 28 33 32 30 21 25 33 19 19 24 33 32 30 26 32 35 37 33 40 42 42 42
49 49 47 47 46 45 46 44 44 41 37 21 16 18 8 7 13 12 11 13 20 26 26 30 30 30 23 22 19 19 19 19 20 30 32 32 28 32 39 39 41 41 39 40 40
48 48 46 45 45 45 44 29 27 22 17 13 12 13 5 8 13 5 13 13 22 17 15 25 30 22 20 21 23 22 19 17 21 29 31 28 27 33 39 43 42 41 41 41 42
48 48 44 44 45 45 38 29 32 36 21 10 7 12 10 9 9 2 15 13 20 9 13 24 19 20 22 21 22 22 20 22 21 21 22 28 29 36 39 39 40 42 42 42 43
48 48 43 43 44 40 33 33 36 37 29 9 6 7 9 6 9 6 17 15 15 11 12 19 15 22 20 22 22 24 25 20 21 23 22 21 27 34 38 39 40 41 44 44 45
47 46 42 43 37 32 32 36 38 39 34 7 3 6 7 7 8 5 17 14 17 8 12 20 14 20 20 18 21 24 24 23 22 24 26 26 26 33 36 36 37 39 42 43 47
47 44 40 41 30 28 33 37 40 37 24 8 4 8 7 5 5 7 18 16 16 15 12 11 12 15 20 18 19 23 25 26 26 25 25 31 28 30 34 31 33 39 40 43 46
45 39 42 32 33 29 36 37 36 33 11 9 6 7 5 7 4 9 18 19 20 19 18 15 17 17 19 20 21 24 28 28 28 26 16 28 29 26 30 30 30 36 37 39 41
43 37 33 25 26 32 38 35 32 19 8 7 5 10 7 7 7 9 16 18 18 13 14 18 15 16 22 23 25 25 25 14 11 12 16 29 24 26 31 31 32 34 34 37 39
42 42 33 26 31 37 33 35 19 13 7 7 9 9 6 8 10 9 12 14 17 19 16 15 12 15 20 21 24 24 28 21 10 14 17 27 24 25 32 31 31 32 33 34 36
40 37 31 29 31 33 33 24 18 12 8 9 11 7 6 10 13 16 14 16 17 20 12 16 11 15 21 22 23 25 21 28 24 24 19 25 27 33 26 25 26 29 31 32 34
38 33 31 30 32 33 33 21 17 10 11 13 10 10 7 9 14 14 14 19 17 19 23 21 14 15 18 22 23 22 21 20 23 15 18 22 20 19 23 24 25 26 28 30 33
38 30 30 30 35 35 27 19 13 11 14 14 13 13 10 12 12 14 13 14 17 20 23 26 17 15 20 22 20 24 18 22 23 26 20 18 18 28 25 27 26 27 28 30 32
37 39 33 33 33 34 27 17 13 12 15 13 16 13 12 9 14 13 13 15 18 21 20 25 16 12 18 23 19 20 19 24 19 19 23 24 18 29 28 29 29 27 28 30 31
36 31 35 37 31 28 18 14 14 13 13 13 13 14 13 10 9 11 12 18 20 21 23 22 15 10 11 21 19 20 18 21 23 27 20 19 19 27 27 27 29 27 28 29 30
41 32 38 36 34 23 17 13 15 18 14 13 13 12 15 12 11 11 12 17 20 23 25 23 20 14 9 14 21 14 16 20 19 19 19 20 22 20 22 25 27 27 28 29 29
40 31 26 30 27 24 24 17 10 13 15 15 12 10 12 6 13 12 15 17 21 24 22 20 14 19 17 17 21 20 15 18 15 16 17 18 19 21 23 25 27 27 27 27 28
36 32 31 25 19 24 22 17 10 12 14 11 15 11 11 13 13 9 15 17 19 20 15 20 13 16 12 19 22 20 15 17 18 16 14 18 21 23 26 26 28 26 26 26 27
30 29 34 24 23 25 23 19 17 19 15 12 12 13 13 15 15 15 16 17 18 18 19 20 18 13 10 17 15 15 15 14 19 18 17 13 18 21 21 22 26 25 26 26 27
Lifted_Index
15 15 15 15 15 15 15 15 15 15 15 14 14 14 14 14 15 15 15 14 13 13 13 13 12 10 9 8 8 8 8 6 4 3 2 1 1 2 3 2 1 1 0 0 0
15 15 15 15 15 15 15 15 15 15 15 15 14 14 14 14 15 15 15 14 13 13 13 13 12 10 8 8 8 8 7 6 4 3 2 1 1 2 3 3 2 1 1 1 1
15 15 15 15 15 15 15 15 15 15 15 14 14 14 14 14 14 15 15 14 14 14 13 12 11 9 8 7 8 7 7 6 4 3 2 1 2 2 3 3 3 2 2 1 1
15 15 15 15 15 15 15 15 15 15 14 14 14 14 15 14 14 15 16 15 15 14 13 12 10 8 7 7 7 7 6 5 4 3 2 2 2 3 3 4 4 4 3 2 1
15 15 15 15 15 15 16 15 15 15 14 14 14 15 15 15 16 16 17 16 15 14 12 11 9 8 7 7 6 6 5 4 3 2 2 2 3 3 3 4 4 4 3 2 2
15 15 15 15 15 16 16 15 15 15 15 14 14 15 15 16 17 18 17 17 16 14 12 10 9 7 6 6 5 4 4 3 2 2 2 2 2 3 3 3 3 4 3 2 1
15 15 15 15 15 16 16 15 15 15 15 15 15 15 16 17 18 18 17 17 16 13 12 10 8 7 6 5 4 3 2 2 1 1 1 1 2 2 2 2 3 3 2 2 2
15 15 15 15 16 16 16 15 15 15 15 15 15 16 17 18 18 18 18 17 15 13 11 10 8 6 5 4 3 2 2 1 1 0 0 1 1 1 1 1 2 2 2 2 3
15 15 15 15 16 16 16 16 16 16 16 16 16 17 17 18 18 18 18 17 15 12 10 9 7 6 5 4 3 2 1 1 1 0 0 0 0 0 0 0 1 1 2 3 3
15 15 15 16 16 16 16 16 16 16 16 17 17 17 17 18 18 18 18 16 14 11 10 8 7 5 4 4 3 2 2 2 1 1 0 0 0 0 -0 -0 0 1 2 3 3
15 15 16 16 16 16 16 16 16 16 16 17 17 17 18 18 18 18 17 15 13 11 10 8 6 5 4 3 3 2 2 2 1 1 0 0 0 0 -0 0 0 1 1 2 3
15 16 17 17 17 16 16 16 17 16 15 16 17 18 18 18 17 18 17 15 13 11 10 7 6 4 3 3 3 2 2 2 1 1 1 0 0 0 0 0 0 1 1 2 3
15 16 17 17 17 17 17 17 17 16 14 14 16 17 18 17 17 17 17 15 13 11 9 8 6 5 4 3 3 3 2 2 2 1 1 1 0 0 0 0 1 1 1 2 3
15 16 18 18 17 17 17 18 18 15 11 12 15 17 17 17 16 17 16 15 13 11 10 8 7 5 4 4 3 3 3 2 2 1 1 1 0 0 0 0 1 1 2 2 2
16 17 18 18 17 17 18 18 17 12 8 10 13 15 16 16 16 16 16 15 13 11 10 8 7 5 4 4 3 3 3 2 2 1 1 1 1 1 1 1 1 2 2 2 2
17 18 19 18 18 18 18 17 14 9 7 9 12 13 13 14 15 15 15 14 12 10 9 8 6 5 4 3 3 3 2 2 1 1 1 1 1 1 1 1 2 2 2 2 2
17 18 18 18 18 19 18 14 9 7 7 9 11 12 12 12 13 14 13 11 10 9 8 7 5 4 3 3 2 2 2 1 1 0 0 0 1 1 2 3 3 3 3 3 3
18 18 18 19 19 18 15 11 7 7 9 10 11 11 11 12 12 12 11 10 10 9 8 6 4 3 3 2 2 2 2 1 0 0 0 0 1 2 3 4 4 4 4 4 3
17 17 17 19 19 17 13 9 7 8 10 10 10 9 10 10 11 11 10 10 11 11 9 6 4 3 3 2 2 2 2 2 1 0 0 0 1 2 3 3 3 4 4 4 4
15 15 16 18 18 15 11 8 9 11 12 11 9 9 9 9 10 9 10 11 11 11 9 7 5 3 2 2 2 2 2 2 1 1 0 0 1 2 2 3 3 3 4 4 4
13 13 15 17 16 13 10 9 11 13 13 12 10 10 10 9 9 9 9 10 11 10 10 8 5 3 2 3 3 2 2 2 1 1 1 1 2 3 4 4 4 4 4 4 4
10 11 15 16 13 11 10 11 12 13 13 13 12 12 11 10 9 9 9 10 10 10 9 8 5 3 2 3 3 3 2 2 2 1 1 1 2 4 5 5 5 4 5 5 5
8 10 14 14 11 10 10 11 12 13 13 13 13 13 12 10 9 9 9 10 10 9 9 8 6 3 2 2 3 2 2 3 2 2 1 1 3 4 5 5 5 5 6 6 5
8 9 11 13 12 11 10 10 10 12 13 13 13 12 11 10 9 9 9 10 9 9 9 8 6 4 3 2 3 2 2 3 2 2 2 2 3 4 4 5 5 6 6 6 5
8 9 10 11 11 11 11 10 10 11 13 13 13 12 11 9 8 8 9 9 9 9 8 7 6 4 3 3 3 2 2 3 2 2 2 2 3 4 5 5 6 6 6 5 5
9 11 11 11 11 11 10 10 10 11 12 13 12 12 11 10 9 9 9 9 9 8 8 7 6 4 3 3 3 3 3 3 3 3 3 3 4 5 6 6 6 6 6 6 5
12 13 13 12 11 11 10 10 10 11 13 13 12 12 11 10 11 10 10 9 9 8 8 7 6 4 3 3 3 2 3 3 3 3 3 3 4 6 6 6 6 6 6 6 6